Regional Weather Roundup
Issued by NWS

Home | Current Version | Previous Version | Graphics & Text | Print | Product List | Glossary On
Versions: 1 2 3 4 5 6 7 8 9 10 11 12 13 14 15 16 17 18 19 20 21 22 23 24 25 26 27 28 29 30 31 32 33 34 35 36 37 38 39 40 41 42 43 44 45 46 47 48 49 50
000
ASUS43 KIND 231809
RWRIN

WEATHER ROUNDUP FOR INDIANA
NATIONAL WEATHER SERVICE INDIANAPOLIS IN
200 PM EDT WED APR 23 2014

NOTE: "FAIR" INDICATES FEW OR NO CLOUDS BELOW 12,000 FEET WITH NO
SIGNIFICANT WEATHER AND/OR OBSTRUCTIONS TO VISIBILITY.

* - STATION DOES NOT REPORT WEATHER SUCH AS PRECIPITATION OR FOG.

+ - STATION NOT QUALITY CONTROLLED BY THE NATIONAL WEATHER SERVICE.
    USE DATA WITH CAUTION...ESPECIALLY DEWPOINT AND RELATIVE
    HUMIDITY OBSERVATIONS.

INZ001>003-010>013-019-020-231900-
NORTHWEST INDIANA

CITY           SKY/WX    TMP DP  RH WIND       PRES   REMARKS
GARY /AIRPORT/ MOSUNNY   46  30  53 NE14      30.19R
MICHIGAN CITY+ SUNNY     43  32  65 NW8       30.18R
MONTICELLO +   SUNNY     53  29  41 N6        30.13F
RENSSELAER +   SUNNY     52  28  40 N7        30.14F
VALPARAISO     SUNNY     48  30  49 N8        30.15S
6HR MIN TEMP:  34; 6HR MAX TEMP:  48; 6HR PCP: TRACE;


$$

LMZ046-743>745-231900-
SOUTHERN LAKE MICHIGAN

STATION/POSITION TIME  TEMP WIND        PRES
                       AIR  DIR/SP/G
                 (UTC) (F)  (DEG/KT/KT) (MB)
MICHIGAN CITY    1800   39  340/ 13/ 15   N/A

$$

INZ004-005-014>016-021>024-231900-
NORTH CENTRAL INDIANA

CITY           SKY/WX    TMP DP  RH WIND       PRES   REMARKS
GOSHEN         SUNNY     53  32  44 NE8       30.11F
6HR MIN TEMP:  35; 6HR MAX TEMP:  53;

LOGANSPORT +   SUNNY     52  28  40 NW6       30.13S
PERU/GRISSOM   SUNNY     53  31  43 VRB3      30.11F
6HR MIN TEMP:  35; 6HR MAX TEMP:  53;

ROCHESTER +    SUNNY     54  28  37 NW9       30.12S
SOUTH BEND     SUNNY     52  29  41 VRB5      30.14S
6HR MIN TEMP:  35; 6HR MAX TEMP:  53;

WARSAW +       SUNNY     50  32  50 N5        30.12R

$$

INZ006>009-017-018-025>027-231900-
NORTHEAST INDIANA

CITY           SKY/WX    TMP DP  RH WIND       PRES   REMARKS
ANGOLA *+      SUNNY     52  28  40 N9        30.09S
FORT WAYNE     MOSUNNY   54  31  41 NE7       30.10F
6HR MIN TEMP:  36; 6HR MAX TEMP:  54;


$$

INZ028-029-035-036-043>045-051>053-231900-
WEST CENTRAL INDIANA

CITY           SKY/WX    TMP DP  RH WIND       PRES   REMARKS
GREENCASTLE +  SUNNY     54  30  40 CALM      30.11F
LAFAYETTE      SUNNY     52  28  39 CALM      30.12F
6HR MIN TEMP:  35; 6HR MAX TEMP:  53;

TERRE HAUTE    SUNNY     58  31  35 NE6       30.11F
6HR MIN TEMP:  40; 6HR MAX TEMP:  58;


$$

INZ030>032-037>040-046>048-054>057-064-065-231900-
CENTRAL INDIANA

CITY           SKY/WX    TMP DP  RH WIND       PRES   REMARKS
COLUMBUS       SUNNY     55  30  38 CALM      30.12F
INDIANAPOLIS   MOSUNNY   54  30  40 N10       30.10F
6HR MIN TEMP:  37; 6HR MAX TEMP:  54;

-EAGLE CREEK   SUNNY     53  32  44 NW6       30.11F
6HR MIN TEMP:  38; 6HR MAX TEMP:  53;

KOKOMO *+      SUNNY     54  30  40 NW6       30.12S
MARION +       SUNNY     51  28  40 NE6       30.11F
MT COMFORT *+  SUNNY     54  32  43 E5        30.11F
SHELBYVILLE    SUNNY     56  34  43 NW8       30.10F
6HR MIN TEMP:  39; 6HR MAX TEMP:  56;

ZIONSVILLE +   SUNNY     53  31  42 NW8       30.12F
6HR MIN TEMP:  36; 6HR MAX TEMP:  53;


$$

INZ033-034-041-042-049-050-058-059-231900-
EAST CENTRAL INDIANA

CITY           SKY/WX    TMP DP  RH WIND       PRES   REMARKS
MUNCIE         SUNNY     53  31  42 VRB3      30.10F
6HR MIN TEMP:  35; 6HR MAX TEMP:  53;


$$

INZ060-061-067>069-081>083-085>088-231900-
SOUTHWEST INDIANA

CITY           SKY/WX    TMP DP  RH WIND       PRES   REMARKS
EVANSVILLE     MOSUNNY   60  28  29 NE8       30.10F
6HR MIN TEMP:  46; 6HR MAX TEMP:  60;

HUNTINGBURG *+ SUNNY     57  34  41 NE9       30.10F
6HR MIN TEMP:  43; 6HR MAX TEMP:  66; 6HR PCP:  0.04;

WASHINGTON +   SUNNY     56  30  36 E6        30.11S
6HR MIN TEMP:  41; 6HR MAX TEMP:  57;


$$

INZ062-063-066-070>080-084-089>092-231900-
SOUTH CENTRAL AND SOUTHEAST INDIANA

CITY           SKY/WX    TMP DP  RH WIND       PRES   REMARKS
BEDFORD +      SUNNY     57  21  24 N6        30.09
BLOOMINGTON    SUNNY     58  27  30 N8        30.10F
6HR MIN TEMP:  38; 6HR MAX TEMP:  59;


$$




USA.gov is the U.S. government's official web portal to all federal, state and local government web resources and services.